Location: Anumalkud?ru
(16.4847°N, 80.6636°E)
Time: 22:49:46
(UTC+00:00)

Atlas Centaur 2 - Pass Details

Date: 11 April 2026
Orbit: 456 x 1246 km, 30.4° (Epoch: 9 May)

Event Time Altitude Azimuth Distance (km) Brightness Sun altitude
Rises 13:50:30 0° 306° (NW) 3,220 6.6 -14.6°
Reaches altitude 10° 13:53:02 10° 317° (NW) 2,421 5.5 -15.2°
Maximum altitude 13:58:15 32° 19° (NNE) 1,582 3.6 -16.4°
Enters shadow 14:02:19 18° 68° (ENE) 2,293 4.0 -17.3°
